TimeEST,TemperatureF,Dew PointF,Humidity,Sea Level PressureIn,VisibilityMPH,Wind Direction,Wind SpeedMPH,Gust SpeedMPH,PrecipitationIn,Events,Conditions,WindDirDegrees,DateUTC
12:53 AM,73.9,71.1,91,30.17,10.0,ESE,6.9,-,0.04,,Mostly Cloudy,110,2013-01-09 05:53:00
1:53 AM,75.9,71.1,85,30.18,10.0,ESE,11.5,-,N/A,,Mostly Cloudy,120,2013-01-09 06:53:00
2:53 AM,75.9,71.1,85,30.17,10.0,ESE,11.5,-,N/A,,Overcast,120,2013-01-09 07:53:00
3:53 AM,75.0,70.0,84,30.19,9.0,ESE,12.7,25.3,0.03,Rain,Rain,120,2013-01-09 08:53:00
4:30 AM,75.2,71.6,89,30.19,10.0,ESE,10.4,-,0.01,,Mostly Cloudy,120,2013-01-09 09:30:00
4:53 AM,75.0,70.0,84,30.19,10.0,SE,11.5,-,0.01,,Overcast,140,2013-01-09 09:53:00
5:05 AM,75.2,69.8,83,30.19,10.0,SE,12.7,-,N/A,,Overcast,140,2013-01-09 10:05:00
5:53 AM,75.0,69.1,82,30.19,10.0,SE,12.7,-,N/A,,Mostly Cloudy,130,2013-01-09 10:53:00
6:53 AM,75.0,69.1,82,30.21,10.0,SE,11.5,-,N/A,,Mostly Cloudy,130,2013-01-09 11:53:00
7:53 AM,75.9,68.0,76,30.24,10.0,SE,11.5,-,N/A,,Scattered Clouds,140,2013-01-09 12:53:00
8:53 AM,78.1,69.1,74,30.26,10.0,SE,12.7,-,N/A,,Scattered Clouds,130,2013-01-09 13:53:00
9:53 AM,80.1,69.1,69,30.28,10.0,ESE,17.3,-,N/A,,Mostly Cloudy,110,2013-01-09 14:53:00
10:53 AM,81.0,69.1,67,30.27,10.0,ESE,18.4,-,N/A,,Scattered Clouds,110,2013-01-09 15:53:00
11:53 AM,81.0,69.1,67,30.25,10.0,ESE,15.0,-,N/A,,Scattered Clouds,120,2013-01-09 16:53:00
12:15 PM,80.6,69.8,70,30.24,10.0,SE,19.6,-,N/A,,Mostly Cloudy,130,2013-01-09 17:15:00
12:53 PM,82.0,70.0,67,30.23,10.0,SE,19.6,24.2,N/A,,Mostly Cloudy,130,2013-01-09 17:53:00
1:00 PM,82.4,69.8,66,30.23,10.0,SE,18.4,-,N/A,,Scattered Clouds,130,2013-01-09 18:00:00
1:12 PM,80.6,69.8,70,30.22,10.0,SE,17.3,-,N/A,,Scattered Clouds,130,2013-01-09 18:12:00
1:53 PM,81.0,70.0,69,30.22,10.0,ESE,17.3,23.0,N/A,,Scattered Clouds,110,2013-01-09 18:53:00
2:50 PM,80.6,69.8,70,30.22,10.0,ESE,18.4,-,N/A,,Mostly Cloudy,110,2013-01-09 19:50:00
2:53 PM,81.0,70.0,69,30.22,10.0,ESE,18.4,-,N/A,,Mostly Cloudy,120,2013-01-09 19:53:00
3:53 PM,80.1,69.1,69,30.22,10.0,ESE,13.8,-,N/A,,Mostly Cloudy,120,2013-01-09 20:53:00
4:09 PM,80.6,69.8,70,30.22,10.0,ESE,15.0,-,N/A,,Scattered Clouds,110,2013-01-09 21:09:00
4:53 PM,79.0,69.1,72,30.23,10.0,ESE,15.0,-,N/A,,Scattered Clouds,110,2013-01-09 21:53:00
5:53 PM,78.1,69.1,74,30.25,10.0,East,11.5,-,N/A,,Scattered Clouds,100,2013-01-09 22:53:00
6:53 PM,77.0,68.0,74,30.26,10.0,ESE,12.7,-,N/A,,Scattered Clouds,110,2013-01-09 23:53:00
7:53 PM,77.0,68.0,74,30.27,10.0,East,13.8,-,N/A,,Scattered Clouds,100,2013-01-10 00:53:00
8:53 PM,77.0,68.0,74,30.28,10.0,ESE,13.8,-,N/A,,Partly Cloudy,110,2013-01-10 01:53:00
9:53 PM,77.0,66.9,71,30.28,10.0,ESE,16.1,-,N/A,,Scattered Clouds,110,2013-01-10 02:53:00
10:53 PM,75.9,69.1,79,30.28,10.0,East,13.8,-,N/A,,Scattered Clouds,100,2013-01-10 03:53:00
11:53 PM,75.9,70.0,82,30.28,10.0,East,16.1,-,0.00,Rain,Light Rain,90,2013-01-10 04:53:00